MQT66N LSZH-ELLX

Flight info

Callsign MQT66N
Flight time 0h 38m
Altitude 28000
Route VEBIT T10 TORPA DCT EDOPI DCT GIVOR
Aircraft A320/M-SDE3FGHIRWY/LB1

Departure

Time 2026-05-08 08:35
Airport Zürich Airport (LSZH)

Arrival

Time 2026-05-08 09:13
Airport Luxembourg-Findel International Airport (ELLX)
Time Latitude Longitude Altitude Speed Heading
2026-05-08 08:05 47.45404 8.56117 1397 ft 0 kts 186°
2026-05-08 08:27 47.45411 8.56118 1397 ft 4 kts 185°
2026-05-08 08:28 47.45438 8.56121 1397 ft 4 kts 179°
2026-05-08 08:28 47.45465 8.56117 1397 ft 4 kts 160°
2026-05-08 08:28 47.45483 8.56098 1397 ft 2 kts 98°
2026-05-08 08:28 47.45483 8.56095 1397 ft 0 kts 96°
2026-05-08 08:30 47.45483 8.56103 1397 ft 3 kts 96°
2026-05-08 08:31 47.45478 8.56171 1402 ft 9 kts 96°
2026-05-08 08:31 47.45491 8.56250 1397 ft 7 kts 50°
2026-05-08 08:31 47.45529 8.56315 1397 ft 10 kts 49°
2026-05-08 08:31 47.45573 8.56390 1407 ft 9 kts 49°
2026-05-08 08:32 47.45604 8.56457 1402 ft 6 kts 84°
2026-05-08 08:32 47.45600 8.56518 1397 ft 5 kts 95°
2026-05-08 08:32 47.45592 8.56610 1406 ft 14 kts 98°
2026-05-08 08:32 47.45579 8.56746 1397 ft 13 kts 98°
2026-05-08 08:33 47.45567 8.56877 1404 ft 12 kts 97°
2026-05-08 08:33 47.45565 8.56993 1397 ft 10 kts 63°
2026-05-08 08:33 47.45605 8.57008 1406 ft 5 kts 332°
2026-05-08 08:33 47.45631 8.56991 1398 ft 4 kts
2026-05-08 08:34 47.45670 8.56987 1398 ft 6 kts 330°
2026-05-08 08:34 47.45674 8.56939 1398 ft 6 kts 273°
2026-05-08 08:34 47.45693 8.56567 1397 ft 75 kts 276°
2026-05-08 08:34 47.45774 8.55476 1398 ft 137 kts 276°
2026-05-08 08:35 47.45909 8.53927 1699 ft 160 kts 279°
2026-05-08 08:35 47.46071 8.52241 2305 ft 167 kts 278°
2026-05-08 08:35 47.46189 8.50544 3078 ft 165 kts 277°
2026-05-08 08:35 47.46289 8.48809 3621 ft 177 kts 271°
2026-05-08 08:36 47.45844 8.47056 3911 ft 197 kts 224°
2026-05-08 08:36 47.44696 8.45763 4171 ft 219 kts 219°
2026-05-08 08:36 47.43596 8.44067 4497 ft 241 kts 230°
2026-05-08 08:36 47.42558 8.42060 5160 ft 249 kts 233°
2026-05-08 08:37 47.41509 8.39907 5727 ft 267 kts 233°
2026-05-08 08:37 47.40416 8.37650 6524 ft 273 kts 233°
2026-05-08 08:37 47.39296 8.35366 7419 ft 276 kts 233°
2026-05-08 08:37 47.38313 8.32933 8310 ft 278 kts 245°
2026-05-08 08:38 47.37479 8.30340 9204 ft 281 kts 243°
2026-05-08 08:38 47.36588 8.27768 10081 ft 283 kts 242°
2026-05-08 08:38 47.35647 8.25138 10584 ft 301 kts 242°
2026-05-08 08:38 47.34624 8.22309 10832 ft 325 kts 242°
2026-05-08 08:39 47.33531 8.19283 11229 ft 340 kts 242°
2026-05-08 08:39 47.32415 8.16173 11928 ft 345 kts 242°
2026-05-08 08:39 47.31292 8.13033 12704 ft 348 kts 242°
2026-05-08 08:39 47.30159 8.09857 13445 ft 352 kts 243°
2026-05-08 08:40 47.29016 8.06650 14155 ft 356 kts 243°
2026-05-08 08:40 47.27977 8.03331 14831 ft 359 kts 251°
2026-05-08 08:40 47.27393 7.99740 15482 ft 363 kts 262°
2026-05-08 08:40 47.27318 7.96016 16117 ft 367 kts 274°
2026-05-08 08:41 47.27649 7.92279 16736 ft 370 kts 277°
2026-05-08 08:41 47.28017 7.88508 17364 ft 373 kts 277°
2026-05-08 08:41 47.28343 7.85162 17882 ft 375 kts 277°
2026-05-08 08:41 47.28713 7.81342 18458 ft 379 kts 277°
2026-05-08 08:42 47.29083 7.77483 19006 ft 382 kts 277°
2026-05-08 08:42 47.29450 7.73601 19558 ft 384 kts 277°
2026-05-08 08:42 47.29816 7.69688 20092 ft 387 kts 277°
2026-05-08 08:42 47.30184 7.65745 20618 ft 390 kts 277°
2026-05-08 08:43 47.30699 7.61809 21103 ft 394 kts 285°
2026-05-08 08:43 47.31530 7.57952 21587 ft 396 kts 287°
2026-05-08 08:43 47.32381 7.54073 22065 ft 399 kts 287°
2026-05-08 08:43 47.33234 7.50165 22519 ft 402 kts 286°
2026-05-08 08:44 47.34090 7.46234 22976 ft 404 kts 286°
2026-05-08 08:44 47.34949 7.42277 23418 ft 406 kts 286°
2026-05-08 08:44 47.35809 7.38298 23856 ft 409 kts 286°
2026-05-08 08:44 47.36670 7.34290 24269 ft 411 kts 286°
2026-05-08 08:45 47.37534 7.30257 24685 ft 413 kts 286°
2026-05-08 08:45 47.38405 7.26203 25089 ft 415 kts 286°
2026-05-08 08:45 47.39276 7.22134 25483 ft 417 kts 285°
2026-05-08 08:45 47.40150 7.18045 25866 ft 419 kts 285°
2026-05-08 08:46 47.40947 7.13897 26241 ft 420 kts 281°
2026-05-08 08:46 47.41572 7.09681 26608 ft 421 kts 280°
2026-05-08 08:46 47.42194 7.05448 26976 ft 423 kts 280°
2026-05-08 08:46 47.42817 7.01190 27334 ft 425 kts 280°
2026-05-08 08:47 47.43441 6.96921 27671 ft 426 kts 280°
2026-05-08 08:47 47.44068 6.92630 27979 ft 428 kts 280°
2026-05-08 08:47 47.45312 6.84053 28083 ft 425 kts 280°
2026-05-08 08:48 47.46836 6.75314 28081 ft 428 kts 291°
2026-05-08 08:48 47.48209 6.71747 28081 ft 432 kts 303°
2026-05-08 08:48 47.50254 6.68467 28080 ft 437 kts 317°
2026-05-08 08:49 47.52832 6.65937 28082 ft 443 kts 330°
2026-05-08 08:49 47.55745 6.64387 28082 ft 449 kts 345°
2026-05-08 08:49 47.61961 6.63047 28083 ft 452 kts 349°
2026-05-08 08:50 47.68151 6.61820 28078 ft 452 kts 349°
2026-05-08 08:50 47.74421 6.60557 28071 ft 452 kts 349°
2026-05-08 08:51 47.80647 6.59288 28067 ft 452 kts 349°
2026-05-08 08:51 47.86872 6.58038 28063 ft 451 kts 349°
2026-05-08 08:52 47.93051 6.56786 28057 ft 451 kts 348°
2026-05-08 08:52 47.99243 6.55355 28056 ft 450 kts 348°
2026-05-08 08:53 48.05424 6.53822 28063 ft 450 kts 348°
2026-05-08 08:53 48.11597 6.52305 28068 ft 450 kts 348°
2026-05-08 08:54 48.17780 6.50822 28069 ft 450 kts 348°
2026-05-08 08:54 48.20870 6.50080 27845 ft 450 kts 348°
2026-05-08 08:54 48.24003 6.49325 27593 ft 450 kts 348°
2026-05-08 08:55 48.27089 6.48585 27340 ft 450 kts 348°
2026-05-08 08:55 48.30146 6.47854 27092 ft 451 kts 348°
2026-05-08 08:55 48.33246 6.47108 26843 ft 451 kts 348°
2026-05-08 08:55 48.36387 6.46349 26585 ft 451 kts 348°
2026-05-08 08:56 48.39437 6.45606 26341 ft 450 kts 348°
2026-05-08 08:56 48.41521 6.45097 26173 ft 449 kts 348°
2026-05-08 08:56 48.44594 6.44343 25922 ft 447 kts 348°
2026-05-08 08:56 48.47659 6.43590 25668 ft 445 kts 348°
2026-05-08 08:57 48.50710 6.42844 25422 ft 443 kts 348°
2026-05-08 08:57 48.53750 6.42103 25169 ft 442 kts 348°
2026-05-08 08:57 48.56785 6.41361 24919 ft 440 kts 348°
2026-05-08 08:57 48.59804 6.40624 24669 ft 439 kts 348°
2026-05-08 08:58 48.62815 6.39886 24418 ft 437 kts 348°
2026-05-08 08:58 48.65820 6.39316 23992 ft 435 kts 354°
2026-05-08 08:58 48.68844 6.39405 23308 ft 434 kts
2026-05-08 08:58 48.71843 6.39724 22664 ft 431 kts
2026-05-08 08:59 48.74816 6.40040 22035 ft 427 kts
2026-05-08 08:59 48.77769 6.40349 21433 ft 423 kts
2026-05-08 08:59 48.80691 6.40651 20843 ft 418 kts
2026-05-08 08:59 48.83574 6.40946 20299 ft 413 kts
2026-05-08 09:00 48.86427 6.41236 19752 ft 408 kts
2026-05-08 09:00 48.89243 6.41519 19240 ft 403 kts
2026-05-08 09:00 48.92029 6.41799 18739 ft 398 kts
2026-05-08 09:00 48.94771 6.42075 18253 ft 393 kts
2026-05-08 09:01 48.97485 6.42354 17765 ft 388 kts
2026-05-08 09:01 49.00168 6.42630 17274 ft 385 kts
2026-05-08 09:01 49.02833 6.42900 16780 ft 382 kts
2026-05-08 09:01 49.05475 6.43167 16277 ft 380 kts
2026-05-08 09:02 49.08102 6.43434 15773 ft 377 kts
2026-05-08 09:02 49.10715 6.43696 15250 ft 376 kts
2026-05-08 09:02 49.13324 6.43959 14727 ft 375 kts
2026-05-08 09:02 49.15924 6.44229 14181 ft 374 kts
2026-05-08 09:03 49.18512 6.44498 13632 ft 373 kts
2026-05-08 09:03 49.21091 6.44449 13079 ft 370 kts 352°
2026-05-08 09:03 49.23595 6.43667 12516 ft 366 kts 341°
2026-05-08 09:03 49.25941 6.42237 11962 ft 363 kts 334°
2026-05-08 09:04 49.28239 6.40652 11391 ft 361 kts 334°
2026-05-08 09:04 49.30521 6.39087 10904 ft 356 kts 335°
2026-05-08 09:04 49.32734 6.37573 10775 ft 341 kts 335°
2026-05-08 09:04 49.34856 6.36118 10648 ft 328 kts 334°
2026-05-08 09:05 49.36899 6.34714 10522 ft 316 kts 335°
2026-05-08 09:05 49.38911 6.33518 10394 ft 305 kts 343°
2026-05-08 09:05 49.40959 6.32804 10162 ft 299 kts 347°
2026-05-08 09:05 49.42975 6.32157 9981 ft 294 kts 347°
2026-05-08 09:06 49.44970 6.31514 9855 ft 293 kts 347°
2026-05-08 09:06 49.46959 6.30849 9729 ft 292 kts 344°
2026-05-08 09:06 49.48760 6.29496 9606 ft 289 kts 320°
2026-05-08 09:06 49.50070 6.27184 9272 ft 291 kts 298°
2026-05-08 09:07 49.50645 6.24218 8849 ft 289 kts 273°
2026-05-08 09:07 49.50423 6.21192 8486 ft 285 kts 251°
2026-05-08 09:07 49.49780 6.18310 8053 ft 285 kts 250°
2026-05-08 09:07 49.49124 6.15436 7660 ft 284 kts 250°
2026-05-08 09:08 49.48471 6.12574 7259 ft 283 kts 250°
2026-05-08 09:08 49.47823 6.09723 6862 ft 282 kts 250°
2026-05-08 09:08 49.47233 6.06850 6310 ft 286 kts 259°
2026-05-08 09:08 49.47407 6.03770 5531 ft 299 kts 291°
2026-05-08 09:09 49.48645 6.01194 4858 ft 306 kts 324°
2026-05-08 09:09 49.50440 5.99549 4649 ft 295 kts 331°
2026-05-08 09:09 49.52254 5.98263 4494 ft 280 kts 349°
2026-05-08 09:09 49.54118 5.98464 4286 ft 267 kts 23°
2026-05-08 09:10 49.55542 6.00175 4034 ft 256 kts 54°
2026-05-08 09:10 49.56420 6.02444 4020 ft 240 kts 65°
2026-05-08 09:10 49.57098 6.04720 3727 ft 229 kts 67°
2026-05-08 09:10 49.57744 6.06933 3287 ft 225 kts 66°
2026-05-08 09:11 49.58405 6.09077 2669 ft 220 kts 64°
2026-05-08 09:11 49.59066 6.11092 2461 ft 198 kts 63°
2026-05-08 09:11 49.59674 6.12863 2321 ft 175 kts 63°
2026-05-08 09:11 49.60187 6.14486 2041 ft 162 kts 68°
2026-05-08 09:12 49.60652 6.15986 1724 ft 153 kts 60°
2026-05-08 09:12 49.61193 6.17387 1409 ft 145 kts 62°
2026-05-08 09:12 49.61758 6.18644 1255 ft 132 kts 57°
2026-05-08 09:12 49.62187 6.19906 1275 ft 133 kts 64°
2026-05-08 09:13 49.62609 6.21067 1204 ft 113 kts 61°
2026-05-08 09:13 49.62916 6.21918 1201 ft 67 kts 60°
2026-05-08 09:13 49.63060 6.22139 1206 ft 18 kts 317°
2026-05-08 09:13 49.63145 6.22059 1211 ft 11 kts 332°
2026-05-08 09:14 49.63192 6.21994 1213 ft 7 kts 298°
2026-05-08 09:14 49.63185 6.21926 1212 ft 7 kts 248°
2026-05-08 09:14 49.63163 6.21851 1210 ft 8 kts 244°
2026-05-08 09:14 49.63154 6.21770 1210 ft 6 kts 292°
2026-05-08 09:15 49.63175 6.21745 1211 ft 0 kts 329°